Weather History for Ulaanbaatar, Mongolia

Change the Weather History Date:

Tuesday, October 30, 2012

  Actual Average Record
Temperature  
Mean Temperature 20 °F -  
Max Temperature 34 °F 24 °F - ()
Min Temperature 6 °F 3 °F - ()
Degree Days  
Heating Degree Days 45    
Moisture  
Dew Point 3 °F    
Average Humidity 45    
Maximum Humidity 67    
Minimum Humidity 15    
Precipitation  
Precipitation 0.14 in 0.00 in - ()
Sea Level Pressure  
Sea Level Pressure 30.21 in    
Wind  
Wind Speed 4 mph ()    
Max Wind Speed 16 mph    
Max Gust Speed -    
Visibility 5.9 miles    
Events      
T = Trace of Precipitation, MM = Missing Value Source: Averaged Metar Reports

Daily Weather History Graph

Daily Weather History Graph

Search for Another Location

Airport:

Trip Planner

Search our weather history database for the weather conditions in past years. The results will help you decide how hot, cold, wet, or windy it might be!

Date:

Astronomy

Oct. 30, 2012 Rise Set
Actual Time 7:34 AM ULAT 5:37 PM ULAT
Civil Twilight 7:02 AM ULAT 6:10 PM ULAT
Nautical Twilight 6:25 AM ULAT 6:46 PM ULAT
Astronomical Twilight 5:49 AM ULAT 7:22 PM ULAT
Moon 5:41 PM ULAT (10/30) 7:54 AM ULAT (10/30)
Length of Visible Light 11h 08m
Length of Day
10h 03m
Full, 100% of the Moon is Illuminated
Oct 30
Full
Nov 7
Last Quarter
Nov 14
New
Nov 20
First Quarter
Nov 28
Full

Hourly Weather History & Observations

Time (ULAT) Temp. Windchill Dew Point Humidity Pressure Visibility Wind Dir Wind Speed Gust Speed Precip Events Conditions
12:00 AM 12.2 °F - -2.2 °F 53% 30.09 in 5.0 mi Calm Calm - N/A   Unknown
1:00 AM 12.2 °F 4.5 °F -2.2 °F 53% 30.09 in - Variable 4.5 mph - N/A   Clear
2:00 AM 21 °F - 1 °F 26% 30.39 in - West 4.5 mph - -   Smoke
2:00 AM 14.0 °F 6.6 °F -2.2 °F 49% 30.09 in - Variable 4.5 mph - N/A   Clear
3:00 AM 14.0 °F - -0.4 °F 53% 30.09 in 6.2 mi Variable 2.2 mph - N/A   Scattered Clouds
4:00 AM 17.6 °F - 1.4 °F 49% 30.09 in 6.2 mi Calm Calm - N/A   Scattered Clouds
4:30 AM 17.6 °F - 3.2 °F 53% 30.12 in 6.2 mi Variable 2.2 mph - N/A   Scattered Clouds
5:00 AM 23 °F - -2 °F 19% 30.41 in 31 mi West 4.5 mph - -  
5:00 AM 14.0 °F - 1.4 °F 57% 30.12 in - Variable 2.2 mph - N/A   Clear
5:30 AM 8.6 °F - -0.4 °F 67% 30.15 in - Variable 2.2 mph - N/A   Clear
6:00 AM 6.8 °F - -2.2 °F 67% 30.15 in - Variable 2.2 mph - N/A   Clear
6:30 AM 8.6 °F -2.4 °F -2.2 °F 62% 30.15 in - South 6.7 mph - N/A   Clear
7:00 AM 10.4 °F -0.2 °F -2.2 °F 57% 30.18 in - South 6.7 mph - N/A   Clear
7:30 AM 8.6 °F -2.4 °F -2.2 °F 62% 30.18 in - South 6.7 mph - N/A   Clear
8:00 AM 18 °F - 1 °F 31% 30.53 in 1 mi Calm Calm - -   Smoke
8:00 AM 6.8 °F -1.8 °F -2.2 °F 67% 30.21 in - Variable 4.5 mph - N/A   Clear
8:30 AM 8.6 °F 0.3 °F -0.4 °F 67% 30.21 in - West 4.5 mph - N/A   Clear
9:00 AM 17.6 °F - 3.2 °F 53% 30.24 in - Variable 2.2 mph - N/A   Clear
9:30 AM 21.2 °F - 3.2 °F 46% 30.24 in - Calm Calm - N/A   Clear
10:00 AM 24.8 °F - 3.2 °F 40% 30.24 in - Variable 2.2 mph - N/A   Clear
10:30 AM 24.8 °F - 6.8 °F 46% 30.24 in 6.2 mi Variable 2.2 mph - N/A   Mostly Cloudy
11:00 AM 29 °F - 7 °F 25% 30.45 in 2 mi NW 8.9 mph - -   Smoke
11:00 AM 28.4 °F - 6.8 °F 40% 30.24 in 6.2 mi Variable 2.2 mph - N/A   Mostly Cloudy
11:30 AM 28.4 °F 19.9 °F 8.6 °F 43% 30.24 in 6.2 mi North 8.9 mph - N/A   Mostly Cloudy
12:00 PM 30.2 °F 20.9 °F 8.6 °F 40% 30.24 in 6.2 mi NNW 11.2 mph - N/A   Mostly Cloudy
12:30 PM 30.2 °F 19.9 °F 10.4 °F 44% 30.24 in 6.2 mi NW 13.4 mph - N/A   Mostly Cloudy
1:00 PM 30.2 °F 22.1 °F 8.6 °F 40% 30.24 in 6.2 mi NNW 8.9 mph - N/A   Mostly Cloudy
1:30 PM 32.0 °F 25.7 °F 8.6 °F 38% 30.21 in 6.2 mi North 6.7 mph - N/A   Mostly Cloudy
2:00 PM 33 °F - 4 °F 16% 30.37 in 31 mi WNW 4.5 mph - -   Scattered Clouds
2:00 PM 32.0 °F 24.3 °F 5.0 °F 32% 30.21 in 6.2 mi NNW 8.9 mph - N/A   Mostly Cloudy
2:30 PM 33.8 °F 26.5 °F 5.0 °F 30% 30.21 in 6.2 mi NNW 8.9 mph - N/A   Partly Cloudy
3:00 PM 33.8 °F 26.5 °F 5.0 °F 30% 30.18 in 6.2 mi NNW 8.9 mph - N/A   Partly Cloudy
3:30 PM 33.8 °F 23.7 °F 3.2 °F 28% 30.18 in 6.2 mi NW 15.7 mph - N/A   Partly Cloudy
4:00 PM 33.8 °F 25.4 °F 3.2 °F 28% 30.18 in 6.2 mi WNW 11.2 mph - N/A   Mostly Cloudy
4:30 PM 33.8 °F 26.5 °F 3.2 °F 28% 30.18 in 6.2 mi NW 8.9 mph - N/A   Mostly Cloudy
5:00 PM 32 °F - 3 °F 15% 30.36 in 31 mi NW 6.7 mph - -   Clear
5:00 PM 33.8 °F 27.9 °F 3.2 °F 28% 30.18 in 6.2 mi NW 6.7 mph - N/A   Mostly Cloudy
5:30 PM 30.2 °F 23.5 °F 6.8 °F 37% 30.18 in 6.2 mi NNW 6.7 mph - N/A   Mostly Cloudy
6:00 PM 28.4 °F 23.4 °F 6.8 °F 40% 30.18 in 6.2 mi NW 4.5 mph - N/A   Partly Cloudy
6:30 PM 26.6 °F - 5.0 °F 40% 30.18 in 6.2 mi Calm Calm - N/A   Partly Cloudy
7:00 PM 19.4 °F - 5.0 °F 54% 30.18 in 6.2 mi Variable 2.2 mph - N/A   Partly Cloudy
7:30 PM 19.4 °F 12.9 °F 5.0 °F 54% 30.18 in 6.2 mi SE 4.5 mph - N/A   Partly Cloudy
8:00 PM 27 °F - 5 °F 24% 30.40 in - Calm Calm - -   Partly Cloudy
8:00 PM 17.6 °F - 5.0 °F 58% 30.18 in 6.2 mi Variable 2.2 mph - N/A   Partly Cloudy
8:30 PM 19.4 °F - 5.0 °F 54% 30.18 in 6.2 mi Variable 2.2 mph - N/A   Partly Cloudy
9:00 PM 17.6 °F 10.8 °F 5.0 °F 58% 30.15 in 6.2 mi South 4.5 mph - N/A   Partly Cloudy
9:30 PM 17.6 °F 10.8 °F 5.0 °F 58% 30.15 in 6.2 mi SSE 4.5 mph - N/A   Partly Cloudy
10:00 PM 15.8 °F 8.7 °F 5.0 °F 62% 30.15 in 6.2 mi South 4.5 mph - N/A   Partly Cloudy
10:30 PM 17.6 °F - 5.0 °F 58% 30.15 in 6.2 mi Variable 2.2 mph - N/A   Partly Cloudy
11:00 PM 22 °F - 5 °F 34% 30.44 in - WNW 2.2 mph - -   Clear
11:00 PM 17.6 °F 10.8 °F 5.0 °F 58% 30.15 in 6.2 mi SSW 4.5 mph - N/A   Mostly Cloudy
11:30 PM 12.2 °F - 3.2 °F 67% 30.15 in 6.2 mi Variable 2.2 mph - N/A   Mostly Cloudy